Terminal Aerodrome Forecast
Issued by NWS

Home | Current Version | Previous Version | Text Only | Print | Product List | Glossary On
Versions: 1 2 3 4 5 6 7 8 9 10 11 12 13 14 15 16 17 18 19 20 21 22 23 24 25 26 27 28 29 30 31 32 33
000
FTUS42 KGSP 012333
TAFHKY
TAF
KHKY 012333Z 0200/0224 00000KT 3SM BR OVC004
     FM020300 22003KT 3/4SM BR OVC003
     FM021000 25003KT 1/4SM FG BKN003
     FM021300 00000KT 2SM BR BKN003
     FM021600 32004KT P6SM BKN025
     FM021700 33005KT P6SM SCT025=

USA.gov is the U.S. government's official web portal to all federal, state and local government web resources and services.